Location: Góry Miechowskie
(50.3599°N, 20.1803°E)
Time: 14:25:17
(UTC+00:00)

A-11 Canister half - Pass Details

Date: 15 September 2024
Orbit: 1515 x 1684 km, 47.2° (Epoch: 07 October)

Event Time Altitude Azimuth Distance (km) Brightness Sun altitude
Rises 20:31:55 0° 270° (W) 4,686 12.0 -30.9°
Reaches altitude 10° 20:34:58 10° 269° (W) 3,692 11.3 -31.2°
Maximum altitude 20:44:11 73° 187° (S) 1,575 8.8 -32.0°
Enters shadow 20:44:50 71° 157° (SSE) 1,593 8.7 -32.1°
Drops below altitude 10° 20:53:24 10° 105° (ESE) 3,691 - -32.8°
Sets 20:56:27 0° 104° (ESE) 4,686 - -33.1°
